This is the latest recevied weather packets stored in our database for station/object K5GTX. If no packets are shown the sender has not sent any weather packets the latest 10 day(s).
| Time | Temp. | Humidity | Pressure | Rain* | Wind** | Luminosity | Snow |
|---|---|---|---|---|---|---|---|
| 1777772901 | 19.44° C | 99% | 1025.5 hPa | 0 mm | - | 0 W/m² | - |
| 1777772599 | 19.44° C | 99% | 1025.4 hPa | 0 mm | - | 0 W/m² | - |
| 1777772296 | 20° C | 99% | 1025.4 hPa | 0 mm | - | 0 W/m² | - |
| 1777771994 | 20° C | 99% | 1025.2 hPa | 0 mm | - | 0 W/m² | - |
| 1777771691 | 21.11° C | 99% | 1025.4 hPa | 0 mm | - | 0 W/m² | - |
| 1777771388 | 21.67° C | 99% | 1025.1 hPa | 0 mm | - | 0 W/m² | - |
| 1777771085 | 21.67° C | 99% | 1025.1 hPa | 0 mm | - | 0 W/m² | - |
| 1777770782 | 22.22° C | 99% | 1025.1 hPa | 0 mm | - | 0 W/m² | - |
| 1777770478 | 22.22° C | 99% | 1025.2 hPa | 0 mm | - | 1 W/m² | - |
| 1777770175 | 22.78° C | 99% | 1024.8 hPa | 0 mm | - | 4 W/m² | - |
| 1777769872 | 22.78° C | 99% | 1025 hPa | 0 mm | - | 5 W/m² | - |
| 1777769570 | 23.33° C | 99% | 1025 hPa | 0 mm | - | 10 W/m² | - |
| 1777769265 | 23.33° C | 99% | 1024.9 hPa | 0 mm | - | 15 W/m² | - |
| 1777768964 | 23.89° C | 99% | 1024.7 hPa | 0 mm | - | 18 W/m² | - |
| 1777768660 | 23.89° C | 99% | 1024.9 hPa | 0 mm | - | 23 W/m² | - |
| 1777768358 | 24.44° C | 99% | 1024.8 hPa | 0 mm | - | 28 W/m² | - |
| 1777768054 | 24.44° C | 99% | 1024.8 hPa | 0 mm | - | 33 W/m² | - |
| 1777767751 | 24.44° C | 99% | 1024.8 hPa | 0 mm | - | 37 W/m² | - |
| 1777767447 | 24.44° C | 99% | 1024.8 hPa | 0 mm | - | 44 W/m² | - |
| 1777767144 | 24.44° C | 99% | 1024.9 hPa | 0 mm | - | 65 W/m² | - |
| 1777766842 | 25° C | 99% | 1024.9 hPa | 0 mm | - | 77 W/m² | - |
| 1777766539 | 25° C | 99% | 1025 hPa | 0 mm | - | 86 W/m² | - |
| 1777766236 | 25° C | 99% | 1024.8 hPa | 0 mm | - | 106 W/m² | - |
| 1777765934 | 25.56° C | 99% | 1024.8 hPa | 0 mm | - | 119 W/m² | - |
| 1777765630 | 26.11° C | 99% | 1024.5 hPa | 0 mm | - | 122 W/m² | - |
* Rain latest hour (hover to see other rain measurements)
** Current wind speed in m/s (hover to see current wind gust speed)